星链-1771 (STARLINK-1771 )

导读 | 豆包AI

STARLINK-1771是美国SpaceX星链星座的成员,于2020年9月3日发射,归属SpaceX星链互联网卫星网络项目。它主要为全球偏远地区、网络覆盖不足区域以及海上、空中用户,提供低延迟、高速率的宽带互联网接入服务,推动了全球互联覆盖的构建。

基本信息
目录编号:
46384
目录名称:
STARLINK-1771
国际标识:
2020-062BM
轨道中心:
EARTH
卫星名称:
星链-1771
卫星全名:
星链-1771 (STARLINK-1771 )
卫星状态:
在轨 (已飞行2065 天)
发射日期:
2020-09-03 UTC
国别 :
美国 (US)
星等 :
--
轨道信息
数据来源 国际轨道数据
星历时间: 2026-04-30T12:05:09+0800
5小时前
查看轨道信息
半长轴: 6784.615km
偏心率: 0.0009294
轨道倾角: 53.037°
近地点辐角 65.054°
升交点赤经 98.823°
平近点角 295.143°
近地点: 400.172km
远地点: 412.784km
周期: 92.693分钟
每日圈数: 15.535133
详细信息
固有亮度:
5
最大亮度:
2.5
卫星平台:
Starlink V1.0
覆盖范围:
全球
运营商:
太空探索技术公司
运营商所在国:
美国
制造商(研发单位):
太空探索技术公司
制造商所在国:
美国
使用方式:
暂无
卫星简介
星链(Starlink)计划是由太空探索技术公司(SpaceX)提出的一个巨型低轨卫星互联网星座项目,计划在2019年至2024年间在太空搭建由约1.2万颗卫星组成的“星链”网络,其中1584颗将部署在地球上空550千米处的近地轨道,并从2020年开始工作。该卫星仍在工作。
2D轨道图
3D轨道图
轨道高度分析图
轨道倾角分析图
轨道综合分析图
查看轨道综合分析图